Powrót do katalogu

SL-16 DEB

AktywnyLEO
NORAD 22419·DEBRIS·🇷🇺 Russia

Wystrzelony Dec 25, 1992 z Baikonur Cosmodrome

Loading…

Następne Przeloty (najbliższe 24 godziny)

TLE

ŚwieżeSource: Space-Track

Epoka: Sep 14, 2026, 15:03 UTC

1 22419U 92093DL  26257.62720480  .00000108  00000-0  10526-3 0  9998
2 22419  71.1818 345.7458 0103675  58.5489 302.5709 13.96134955713578

Śledź SL-16 DEB w czasie rzeczywistym z AllMySat

Download on the App Store